K3TLB-13 Weather Reports


time (UTC)temp
C
wind
direction
speed
KPH
gust
KPH
rain 1hr
cm
rain 24hr
cm
rain mn
cm
humidity
%
barometer
mb
20260505224400 25 194 11.3 24.1 0.00 0.03 0.00 33 1007.6
20260505223900 25 213 9.7 22.5 0.00 0.03 0.00 33 1007.6
20260505223400 25 175 9.7 22.5 0.00 0.03 0.00 33 1007.7
20260505222900 25 158 8.0 27.4 0.00 0.03 0.00 33 1007.6
20260505222400 25 197 8.0 19.3 0.00 0.03 0.00 34 1007.6
20260505221900 25 243 12.9 19.3 0.00 0.03 0.00 34 1007.7
20260505221402 25 221 12.9 24.1 0.00 0.03 0.00 32 1007.9
20260505220900 26 197 12.9 27.4 0.00 0.03 0.00 33 1007.7
20260505220400 26 141 16.1 30.6 0.00 0.03 0.00 34 1007.8
20260505215900 26 244 16.1 29.0 0.00 0.03 0.00 33 1007.7
20260505215400 26 198 14.5 32.2 0.00 0.03 0.00 33 1007.7
20260505214901 26 167 16.1 27.4 0.00 0.03 0.00 33 1007.7
20260505214400 27 242 16.1 33.8 0.00 0.03 0.00 33 1007.7
20260505213901 27 188 14.5 35.4 0.00 0.03 0.00 34 1007.6
20260505213401 27 228 16.1 29.0 0.00 0.03 0.00 34 1007.5
20260505212901 27 174 16.1 37.0 0.00 0.03 0.00 34 1007.5
20260505212404 26 145 14.5 25.7 0.00 0.03 0.00 35 1007.3
20260505211901 26 214 12.9 35.4 0.00 0.03 0.00 34 1007.4
20260505211401 26 148 11.3 24.1 0.00 0.03 0.00 34 1007.4
20260505210901 26 193 16.1 29.0 0.00 0.03 0.00 34 1007.4
20260505210401 27 171 14.5 32.2 0.00 0.03 0.00 34 1007.5
20260505205901 27 179 14.5 33.8 0.00 0.03 0.00 34 1007.4
20260505205401 27 233 14.5 30.6 0.00 0.03 0.00 34 1007.5
20260505204901 27 229 12.9 24.1 0.00 0.03 0.00 36 1007.5
20260505204401 27 234 12.9 35.4 0.00 0.03 0.00 34 1007.5
20260505203901 27 184 11.3 25.7 0.00 0.03 0.00 34 1007.4
20260505203401 26 210 12.9 25.7 0.00 0.03 0.00 35 1007.6
20260505202901 26 136 14.5 24.1 0.00 0.03 0.00 35 1007.7
20260505202401 27 196 14.5 24.1 0.00 0.03 0.00 35 1007.5
20260505201901 27 244 14.5 32.2 0.00 0.03 0.00 35 1007.7
20260505201401 27 219 17.7 25.7 0.00 0.03 0.00 35 1007.8
20260505200901 27 227 17.7 35.4 0.00 0.03 0.00 35 1007.7
20260505200401 27 192 16.1 27.4 0.00 0.03 0.00 35 1007.7
20260505195901 27 202 17.7 29.0 0.00 0.03 0.00 35 1008.0
20260505195401 27 214 17.7 32.2 0.00 0.03 0.00 35 1008.0
20260505194901 26 184 16.1 41.8 0.00 0.03 0.00 35 1008.1
20260505194401 26 207 14.5 27.4 0.00 0.03 0.00 34 1008.0
20260505193901 26 247 14.5 30.6 0.00 0.03 0.00 35 1008.1
20260505193402 26 213 14.5 25.7 0.00 0.03 0.00 35 1008.1
20260505192901 26 166 16.1 29.0 0.00 0.03 0.00 35 1008.3
20260505192401 26 211 14.5 33.8 0.00 0.03 0.00 34 1008.3
20260505191901 26 171 14.5 32.2 0.00 0.03 0.00 35 1008.3
20260505191402 26 140 16.1 27.4 0.00 0.03 0.00 36 1008.4
20260505191004 26 136 16.1 29.0 0.00 0.03 0.00 36 1008.5
20260505190901 26 136 16.1 29.0 0.00 0.03 0.00 36 1008.5
20260505190401 26 199 17.7 33.8 0.00 0.03 0.00 36 1008.4
20260505185901 26 218 17.7 32.2 0.00 0.03 0.00 36 1008.5
20260505185401 26 213 14.5 35.4 0.00 0.03 0.00 36 1008.6
20260505184902 26 175 14.5 33.8 0.00 0.03 0.00 37 1008.8
20260505184401 26 170 17.7 32.2 0.00 0.03 0.00 35 1008.8
20260505183901 26 136 17.7 33.8 0.00 0.03 0.00 37 1008.9
20260505183401 26 242 17.7 33.8 0.00 0.03 0.00 37 1008.9
20260505182905 26 175 14.5 38.6 0.00 0.03 0.00 36 1009.0
20260505182401 26 211 12.9 25.7 0.00 0.03 0.00 36 1009.0
20260505181901 26 142 14.5 25.7 0.00 0.03 0.00 36 1008.9
20260505181402 26 190 12.9 25.7 0.00 0.03 0.00 36 1008.9
20260505181314 26 167 11.3 24.1 0.00 0.03 0.00 37 1009.1
20260505180901 26 167 11.3 24.1 0.00 0.03 0.00 37 1009.1
20260505180401 26 135 14.5 33.8 0.00 0.03 0.00 38 1009.1
20260505175901 26 205 14.5 30.6 0.00 0.03 0.00 37 1009.0
20260505175401 26 231 14.5 30.6 0.00 0.03 0.00 37 1009.2
20260505174903 26 156 14.5 22.5 0.00 0.03 0.00 36 1009.2
20260505174401 26 200 12.9 25.7 0.00 0.03 0.00 37 1009.2
20260505173901 26 171 14.5 27.4 0.00 0.03 0.00 38 1009.1
20260505173402 26 209 14.5 27.4 0.00 0.03 0.00 37 1009.1
20260505172901 26 215 14.5 29.0 0.00 0.03 0.00 36 1009.2
20260505172401 26 205 16.1 27.4 0.00 0.03 0.00 39 1009.3
20260505171903 26 207 16.1 32.2 0.00 0.03 0.00 36 1009.4
20260505171402 26 121 16.1 24.1 0.00 0.03 0.00 37 1009.4
20260505170902 26 214 16.1 29.0 0.00 0.03 0.00 36 1009.4
20260505170402 26 164 16.1 27.4 0.00 0.03 0.00 38 1009.5
20260505165901 26 184 16.1 25.7 0.00 0.03 0.00 39 1009.5
20260505165401 25 269 16.1 24.1 0.00 0.03 0.00 40 1009.5
20260505164901 25 196 17.7 27.4 0.00 0.03 0.00 39 1009.7
20260505164401 25 225 17.7 32.2 0.00 0.03 0.00 39 1009.7
20260505163902 25 186 16.1 30.6 0.00 0.03 0.00 39 1009.9
20260505163404 25 254 17.7 22.5 0.00 0.03 0.00 41 1010.0
20260505162901 25 242 17.7 32.2 0.00 0.03 0.00 38 1010.1
20260505162401 25 227 17.7 32.2 0.00 0.03 0.00 39 1010.2
20260505161901 25 230 17.7 25.7 0.00 0.03 0.00 40 1010.3
20260505161403 25 244 17.7 29.0 0.00 0.03 0.00 39 1010.3
20260505160901 25 194 16.1 33.8 0.00 0.03 0.00 38 1010.4
20260505160403 25 226 17.7 33.8 0.00 0.03 0.00 38 1010.6
20260505152901 24 147 11.3 30.6 0.00 0.03 0.00 46 1010.5
20260505152401 24 172 11.3 17.7 0.00 0.03 0.00 46 1010.6
20260505151901 23 196 11.3 22.5 0.00 0.03 0.00 47 1010.6
20260505151438 23 220 9.7 20.9 0.00 0.03 0.00 47 1010.6
20260505151402 23 220 9.7 20.9 0.00 0.03 0.00 47 1010.6
20260505150901 23 187 8.0 19.3 0.00 0.03 0.00 48 1010.5
20260505150401 23 165 8.0 17.7 0.00 0.03 0.00 51 1010.4
20260505140402 21 197 4.8 14.5 0.00 0.03 0.00 55 1010.8
20260505124902 17 134 6.4 17.7 0.00 0.03 0.00 63 1011.6
20260505124402 17 119 6.4 16.1 0.00 0.03 0.00 63 1011.5
20260505123902 17 126 6.4 14.5 0.00 0.03 0.00 65 1011.6
20260505123402 17 136 6.4 16.1 0.00 0.03 0.00 65 1011.7
20260505122904 16 159 6.4 12.9 0.00 0.03 0.00 67 1011.7
20260505122530 16 179 6.4 14.5 0.00 0.03 0.00 66 1011.7
20260505122402 16 179 6.4 14.5 0.00 0.03 0.00 66 1011.7
20260505121902 16 173 6.4 12.9 0.00 0.03 0.00 67 1011.6
20260505121402 16 154 6.4 12.9 0.00 0.03 0.00 67 1011.6
20260505120902 16 109 6.4 19.3 0.00 0.03 0.00 68 1011.7
20260505120402 16 155 6.4 19.3 0.00 0.03 0.00 68 1011.7
20260505115902 15 207 6.4 17.7 0.00 0.03 0.00 70 1011.7
20260505115402 15 146 3.2 16.1 0.00 0.03 0.00 70 1011.6
20260505114902 15 191 4.8 9.7 0.00 0.03 0.00 71 1011.5
20260505114402 15 188 6.4 14.5 0.00 0.03 0.00 70 1011.5
20260505113902 15 170 6.4 17.7 0.00 0.03 0.00 71 1011.4
20260505113403 15 123 4.8 14.5 0.00 0.03 0.00 71 1011.3
20260505112905 14 140 3.2 14.5 0.00 0.03 0.00 72 1011.2
20260505112402 14 161 3.2 11.3 0.00 0.03 0.00 72 1011.2
20260505111902 14 123 6.4 11.3 0.00 0.03 0.00 72 1011.1
20260505111402 14 130 6.4 12.9 0.00 0.03 0.00 72 1011.0
20260505110903 14 116 6.4 14.5 0.00 0.03 0.00 72 1011.0
20260505110402 14 145 4.8 14.5 0.00 0.03 0.00 72 1010.8
20260505101902 13 140 4.8 16.1 0.00 0.03 0.00 73 1010.3
20260505101402 13 159 4.8 12.9 0.00 0.03 0.00 73 1010.4
20260505100902 13 82 3.2 11.3 0.00 0.03 0.00 73 1010.5
20260505100402 13 199 1.6 11.3 0.00 0.03 0.00 73 1010.3
20260505095904 13 171 1.6 11.3 0.00 0.03 0.00 73 1010.3
20260505095402 13 134 1.6 6.4 0.00 0.03 0.00 73 1010.3
20260505094902 13 174 1.6 9.7 0.00 0.03 0.00 73 1010.3
20260505094404 13 136 3.2 8.0 0.00 0.03 0.00 73 1010.4
20260505093902 13 219 1.6 11.3 0.00 0.03 0.00 73 1010.4
20260505093402 13 185 1.6 9.7 0.00 0.03 0.00 73 1010.3
20260505092907 13 161 1.6 6.4 0.00 0.03 0.00 72 1010.4
20260505092402 13 164 3.2 6.4 0.00 0.03 0.00 72 1010.4
20260505091902 13 154 3.2 8.0 0.00 0.03 0.00 72 1010.3
20260505091403 13 134 3.2 8.0 0.00 0.03 0.00 72 1010.3
20260505090956 13 148 3.2 11.3 0.00 0.03 0.00 72 1010.2
20260505090902 13 148 3.2 11.3 0.00 0.03 0.00 72 1010.2
20260505090403 13 148 3.2 8.0 0.00 0.03 0.00 73 1010.2
20260505085904 13 134 1.6 8.0 0.00 0.03 0.00 73 1010.0
20260505085403 13 102 1.6 3.2 0.00 0.03 0.00 73 1010.1
20260505084902 13 105 0.0 8.0 0.00 0.03 0.00 73 1010.0
20260505084402 13 117 0.0 1.6 0.00 0.03 0.00 73 1010.0
20260505084057 13 240 0.0 3.2 0.00 0.03 0.00 73 1009.9
20260505083902 13 240 0.0 3.2 0.00 0.03 0.00 73 1009.9
20260505083405 13 117 0.0 1.6 0.00 0.03 0.00 73 1010.0
20260505082906 13 52 0.0 0.0 0.00 0.03 0.00 73 1010.0
20260505082402 13 52 0.0 0.0 0.00 0.03 0.00 73 1010.1
20260505081902 13 154 0.0 3.2 0.00 0.03 0.00 73 1010.1
20260505081403 13 173 0.0 0.0 0.00 0.03 0.00 73 1010.1
20260505080902 13 169 0.0 3.2 0.00 0.03 0.00 72 1010.2
20260505080402 13 157 0.0 1.6 0.00 0.03 0.00 72 1010.2
20260505075907 13 111 0.0 4.8 0.00 0.03 0.00 72 1010.1
20260505075402 13 113 1.6 4.8 0.00 0.03 0.00 72 1010.1
20260505074902 13 91 1.6 4.8 0.00 0.03 0.00 71 1010.0
20260505074402 13 163 1.6 11.3 0.00 0.03 0.00 71 1010.1
20260505074133 14 118 1.6 6.4 0.00 0.03 0.00 71 1010.0
20260505073902 14 118 1.6 6.4 0.00 0.03 0.00 71 1010.0
20260505073403 14 108 1.6 4.8 0.00 0.03 0.00 70 1010.0
20260505072902 14 98 1.6 4.8 0.00 0.03 0.00 70 1009.9
20260505072405 14 104 1.6 3.2 0.00 0.03 0.00 70 1009.9
20260505071902 14 111 0.0 4.8 0.00 0.03 0.00 70 1009.8
20260505071721 14 126 0.0 3.2 0.00 0.03 0.00 70 1009.8
20260505071403 14 126 0.0 3.2 0.00 0.03 0.00 70 1009.8
20260505070903 14 101 0.0 3.2 0.00 0.03 0.00 70 1009.8
20260505070403 14 69 0.0 6.4 0.00 0.03 0.00 70 1009.8
20260505065905 14 92 0.0 3.2 0.00 0.03 0.00 70 1009.8
20260505065809 15 274 0.0 0.0 0.00 0.03 0.00 69 1009.9
20260505065403 15 274 0.0 0.0 0.00 0.03 0.00 69 1009.9
20260505064902 15 245 0.0 3.2 0.00 0.03 0.00 68 1009.9
20260505064403 15 91 0.0 3.2 0.00 0.03 0.00 68 1010.0
20260505064049 15 101 0.0 6.4 0.00 0.03 0.00 69 1010.0
20260505063903 15 101 0.0 6.4 0.00 0.03 0.00 69 1010.0
20260505063403 15 144 1.6 1.6 0.00 0.03 0.00 69 1010.0
20260505062905 15 160 1.6 4.8 0.00 0.03 0.00 69 1010.0
20260505062403 15 129 0.0 4.8 0.00 0.03 0.00 68 1010.0
20260505061903 15 159 0.0 3.2 0.00 0.03 0.00 67 1010.1
20260505061403 15 123 0.0 1.6 0.00 0.03 0.00 67 1010.0
20260505060903 15 162 0.0 3.2 0.00 0.03 0.00 66 1010.1
20260505060403 15 159 0.0 3.2 0.00 0.03 0.00 66 1010.1
20260505055906 15 180 0.0 1.6 0.00 0.03 0.00 66 1010.2
20260505055403 15 144 0.0 1.6 0.00 0.03 0.00 65 1010.3
20260505054903 16 114 1.6 4.8 0.00 0.03 0.00 65 1010.2
20260505054404 16 172 1.6 3.2 0.00 0.03 0.00 65 1010.2
20260505053904 16 137 1.6 8.0 0.00 0.03 0.00 65 1010.2
20260505053405 16 98 0.0 3.2 0.00 0.03 0.00 65 1010.1
20260505052903 16 190 0.0 1.6 0.00 0.03 0.00 64 1010.1
20260505052403 16 282 0.0 1.6 0.00 0.03 0.00 64 1010.2
20260505051903 16 298 0.0 3.2 0.00 0.03 0.00 63 1010.1
20260505051404 16 148 1.6 4.8 0.00 0.03 0.00 62 1010.2
20260505050903 16 144 1.6 4.8 0.00 0.03 0.00 62 1010.2
20260505050404 16 224 1.6 6.4 0.00 0.03 0.00 62 1010.3
20260505041403 17 150 3.2 12.9 0.00 0.03 0.00 60 1009.9
20260505040903 17 173 3.2 12.9 0.00 0.03 0.00 59 1009.9
20260505040403 17 123 3.2 8.0 0.00 0.03 0.00 59 1009.9
20260505035905 17 128 3.2 6.4 0.00 0.03 0.03 59 1009.9
20260505035403 17 174 3.2 8.0 0.00 0.03 0.03 59 1009.9
20260505034903 17 221 4.8 11.3 0.00 0.03 0.03 58 1009.9
20260505034403 17 189 4.8 11.3 0.00 0.03 0.03 58 1009.8
20260505033903 17 161 3.2 14.5 0.00 0.03 0.03 58 1009.8
20260505033403 17 212 3.2 9.7 0.00 0.03 0.03 58 1009.8
20260505032903 17 171 3.2 4.8 0.00 0.03 0.03 59 1009.8
20260505032403 17 153 4.8 12.9 0.00 0.03 0.03 57 1009.8
20260505031903 17 215 4.8 16.1 0.00 0.03 0.03 58 1009.8
20260505031404 17 187 4.8 14.5 0.00 0.03 0.03 58 1009.7
20260505030903 17 219 4.8 12.9 0.00 0.03 0.03 59 1009.8
20260505030404 17 140 4.8 9.7 0.00 0.03 0.03 59 1009.7
20260505025907 17 250 4.8 19.3 0.00 0.03 0.03 58 1009.8
20260505025403 17 178 4.8 9.7 0.00 0.03 0.03 59 1009.8
20260505024905 17 214 3.2 14.5 0.00 0.03 0.03 59 1009.8
20260505024403 17 221 3.2 12.9 0.00 0.03 0.03 59 1009.8
20260505023903 17 146 3.2 12.9 0.00 0.03 0.03 59 1009.6
20260505023403 17 186 1.6 8.0 0.00 0.03 0.03 58 1009.7
20260505022905 17 164 1.6 8.0 0.00 0.03 0.03 58 1009.7
20260505022442 17 184 3.2 4.8 0.00 0.03 0.03 58 1009.7
20260505022403 17 184 3.2 4.8 0.00 0.03 0.03 58 1009.7
20260505021904 17 183 3.2 9.7 0.03 0.03 0.03 58 1009.7
20260505021403 17 226 3.2 6.4 0.03 0.03 0.03 58 1009.9
20260505020904 17 248 1.6 6.4 0.03 0.03 0.03 58 1009.8
20260505020508 17 221 1.6 4.8 0.03 0.03 0.03 59 1009.9
20260505020403 17 221 1.6 4.8 0.03 0.03 0.03 59 1009.9
20260505015905 17 265 1.6 4.8 0.03 0.03 0.03 57 1009.8
20260505015403 17 178 1.6 8.0 0.03 0.03 0.03 58 1009.7
20260505014903 17 163 3.2 6.4 0.03 0.03 0.03 60 1009.6
20260505014403 17 221 3.2 12.9 0.03 0.03 0.03 58 1009.6
20260505013903 17 22 3.2 9.7 0.03 0.03 0.03 60 1009.6
20260505013405 17 228 6.4 11.3 0.03 0.03 0.03 60 1009.7
20260505012905 18 178 9.7 19.3 0.03 0.03 0.03 57 1009.7
20260505012403 18 225 8.0 22.5 0.03 0.03 0.03 56 1009.5
20260505011904 18 153 4.8 8.0 0.00 0.00 0.00 49 1009.4
20260505011403 19 223 4.8 8.0 0.00 0.00 0.00 47 1009.7
20260505010904 19 172 3.2 11.3 0.00 0.00 0.00 47 1009.5
20260505010403 19 183 3.2 6.4 0.00 0.00 0.00 46 1009.2
20260505005904 20 159 4.8 14.5 0.00 0.00 0.00 46 1009.1
20260505005403 20 165 4.8 8.0 0.00 0.00 0.00 45 1009.2
20260505004903 20 152 6.4 11.3 0.00 0.00 0.00 45 1009.0
20260505004403 20 154 6.4 14.5 0.00 0.00 0.00 45 1009.0
20260505003903 20 152 4.8 12.9 0.00 0.00 0.00 45 1008.9
20260505003436 20 140 4.8 12.9 0.00 0.00 0.00 44 1008.9
20260505003403 20 140 4.8 12.9 0.00 0.00 0.00 44 1008.9
20260505002907 20 188 4.8 11.3 0.00 0.00 0.00 44 1008.9
20260505002403 20 165 6.4 16.1 0.00 0.00 0.00 43 1008.8
20260505001903 20 165 6.4 14.5 0.00 0.00 0.00 43 1008.8
20260505001403 20 209 6.4 17.7 0.00 0.00 0.00 43 1008.9
20260505000903 21 188 6.4 19.3 0.00 0.00 0.00 42 1008.9
20260505000405 21 180 6.4 14.5 0.00 0.00 0.00 42 1009.0
20260504235903 21 161 6.4 14.5 0.00 0.00 0.00 41 1009.0
20260504235404 21 219 6.4 14.5 0.00 0.00 0.00 41 1008.9
20260504234903 21 182 6.4 19.3 0.00 0.00 0.00 40 1008.8
20260504234404 21 193 4.8 14.5 0.00 0.00 0.00 40 1008.8
20260504233904 22 158 4.8 12.9 0.00 0.00 0.00 40 1008.8
20260504233404 22 158 6.4 16.1 0.00 0.00 0.00 39 1008.8
20260504232904 22 182 6.4 14.5 0.00 0.00 0.00 38 1008.7
20260504232404 22 207 6.4 11.3 0.00 0.00 0.00 38 1008.7
20260504231904 22 262 6.4 20.9 0.00 0.00 0.00 38 1008.6
20260504231404 22 177 6.4 14.5 0.00 0.00 0.00 38 1008.6
20260504230904 22 165 8.0 14.5 0.00 0.00 0.00 39 1008.6
20260504230404 22 155 8.0 16.1 0.00 0.00 0.00 38 1008.5
20260504225904 22 189 6.4 17.7 0.00 0.00 0.00 38 1008.7
20260504225404 22 123 6.4 16.1 0.00 0.00 0.00 39 1008.7
20260504224904 22 177 8.0 12.9 0.00 0.00 0.00 38 1008.8